When you browse on this site, cookies collect data to enhance your experience and personalize the content and advertising you see.
Visit our Privacy Policy to learn more. By continuing to use the site, you agree to this use of cookies and data.
  • In Austria
  • List of Countries
  • For 7 days
  • Water Temperature
  • Satellite Maps
  • Weather Map
  • News
  • Weather Widgets
  • user-avatar
    Login

    Hourly Weather Povchin

    Today, 24 May, Friday

    Time Temperature Precipitation Wind Pressure Humidity
    00:00 +16°C° 0 mm 1 mps 746 mmHg 89%
    01:00 +15°C° 0 mm 1 mps 746 mmHg 90%
    02:00 +15°C° 0 mm 1 mps 746 mmHg 91%
    03:00 +15°C° 0 mm 1 mps 746 mmHg 91%
    04:00 +15°C° 0 mm 1 mps 746 mmHg 92%
    05:00 +15°C° 0 mm 2 mps 746 mmHg 93%
    06:00 +16°C° 0 mm 2 mps 746 mmHg 88%
    07:00 +18°C° 0 mm 2 mps 746 mmHg 84%
    08:00 +20°C° 0 mm 2 mps 746 mmHg 79%
    09:00 +21°C° 0.4 mm 2 mps 746 mmHg 74%
    10:00 +23°C° 0.4 mm 2 mps 746 mmHg 68%
    11:00 +24°C° 0.4 mm 2 mps 746 mmHg 63%
    12:00 +25°C° 0.1 mm 2 mps 746 mmHg 62%
    13:00 +25°C° 0.1 mm 3 mps 746 mmHg 61%
    14:00 +25°C° 0.1 mm 3 mps 746 mmHg 60%
    15:00 +25°C° 0.3 mm 3 mps 746 mmHg 63%
    16:00 +25°C° 0.3 mm 3 mps 745 mmHg 66%
    17:00 +24°C° 0.3 mm 2 mps 745 mmHg 69%
    18:00 +21°C° 0.4 mm 2 mps 745 mmHg 77%
    19:00 +20°C° 0.4 mm 2 mps 745 mmHg 84%
    20:00 +18°C° 0.4 mm 2 mps 745 mmHg 92%
    21:00 +17°C° 0.1 mm 2 mps 745 mmHg 93%
    22:00 +16°C° 0.1 mm 2 mps 745 mmHg 95%
    23:00 +16°C° 0.1 mm 2 mps 745 mmHg 97%

    Tomorrow, 25 May, Saturday

    Time Temperature Precipitation Wind Pressure Humidity
    00:00 +15°C° 0 mm 2 mps 745 mmHg 97%
    01:00 +15°C° 0 mm 2 mps 745 mmHg 97%
    02:00 +14°C° 0 mm 2 mps 745 mmHg 98%
    03:00 +14°C° 0.1 mm 2 mps 745 mmHg 98%
    04:00 +14°C° 0.1 mm 2 mps 745 mmHg 98%
    05:00 +14°C° 0.1 mm 2 mps 745 mmHg 98%
    06:00 +15°C° 0 mm 2 mps 745 mmHg 94%
    07:00 +16°C° 0 mm 2 mps 745 mmHg 90%
    08:00 +17°C° 0 mm 2 mps 745 mmHg 86%
    09:00 +19°C° 0 mm 3 mps 745 mmHg 78%
    10:00 +20°C° 0 mm 3 mps 745 mmHg 71%
    11:00 +22°C° 0 mm 4 mps 745 mmHg 63%
    12:00 +23°C° 0 mm 4 mps 745 mmHg 59%
    13:00 +23°C° 0 mm 4 mps 745 mmHg 56%
    14:00 +25°C° 0 mm 5 mps 744 mmHg 53%
    15:00 +23°C° 0 mm 4 mps 744 mmHg 52%
    16:00 +23°C° 0 mm 4 mps 744 mmHg 52%
    17:00 +23°C° 0 mm 4 mps 744 mmHg 52%
    18:00 +21°C° 0 mm 3 mps 744 mmHg 59%
    19:00 +19°C° 0 mm 2 mps 744 mmHg 66%
    20:00 +18°C° 0 mm 1 mps 745 mmHg 74%
    21:00 +16°C° 0 mm 2 mps 745 mmHg 77%
    22:00 +16°C° 0 mm 2 mps 745 mmHg 81%
    23:00 +15°C° 0 mm 2 mps 745 mmHg 84%

    Day after tomorrow, 26 May, Sunday

    Time Temperature Precipitation Wind Pressure Humidity
    00:00 +14°C° 0 mm 2 mps 745 mmHg 87%
    01:00 +14°C° 0 mm 2 mps 746 mmHg 90%
    02:00 +13°C° 0 mm 2 mps 746 mmHg 93%
    03:00 +13°C° 0 mm 2 mps 746 mmHg 94%
    04:00 +12°C° 0 mm 2 mps 746 mmHg 94%
    05:00 +12°C° 0 mm 1 mps 746 mmHg 94%
    06:00 +14°C° 0 mm 2 mps 746 mmHg 85%
    07:00 +15°C° 0 mm 2 mps 747 mmHg 75%
    08:00 +17°C° 0 mm 2 mps 747 mmHg 66%
    09:00 +18°C° 0 mm 2 mps 747 mmHg 64%
    10:00 +19°C° 0 mm 3 mps 747 mmHg 62%
    11:00 +19°C° 0 mm 3 mps 747 mmHg 60%
    12:00 +20°C° 0 mm 4 mps 747 mmHg 57%
    13:00 +21°C° 0 mm 4 mps 746 mmHg 54%
    14:00 +22°C° 0 mm 5 mps 746 mmHg 50%
    15:00 +22°C° 0 mm 5 mps 746 mmHg 52%
    16:00 +22°C° 0 mm 5 mps 746 mmHg 53%
    17:00 +22°C° 0 mm 4 mps 746 mmHg 54%
    18:00 +20°C° 0.1 mm 4 mps 746 mmHg 63%
    19:00 +18°C° 0.1 mm 3 mps 746 mmHg 72%
    20:00 +17°C° 0.1 mm 3 mps 746 mmHg 81%
    21:00 +16°C° 0 mm 3 mps 746 mmHg 85%
    22:00 +16°C° 0 mm 3 mps 746 mmHg 88%
    23:00 +14°C° 0 mm 3 mps 747 mmHg 92%

    27 May, Monday

    Time Temperature Precipitation Wind Pressure Humidity
    00:00 +13°C° 0 mm 3 mps 747 mmHg 94%
    01:00 +13°C° 0 mm 2 mps 747 mmHg 95%
    02:00 +13°C° 0 mm 2 mps 747 mmHg 96%
    03:00 +12°C° 0 mm 2 mps 748 mmHg 96%
    04:00 +12°C° 0 mm 1 mps 748 mmHg 95%
    05:00 +12°C° 0 mm 1 mps 748 mmHg 94%
    06:00 +14°C° 0 mm 1 mps 748 mmHg 85%
    07:00 +16°C° 0 mm 2 mps 748 mmHg 76%
    08:00 +18°C° 0 mm 2 mps 749 mmHg 67%
    09:00 +19°C° 0 mm 3 mps 749 mmHg 61%
    10:00 +20°C° 0 mm 3 mps 749 mmHg 56%
    11:00 +22°C° 0 mm 3 mps 749 mmHg 50%
    12:00 +24°C° 0 mm 3 mps 748 mmHg 50%
    13:00 +25°C° 0 mm 3 mps 748 mmHg 49%
    14:00 +26°C° 0 mm 3 mps 748 mmHg 49%
    15:00 +25°C° 0.1 mm 3 mps 748 mmHg 53%
    16:00 +25°C° 0.1 mm 4 mps 747 mmHg 57%
    17:00 +25°C° 0.1 mm 4 mps 747 mmHg 61%
    18:00 +22°C° 0.1 mm 3 mps 747 mmHg 69%
    19:00 +21°C° 0.1 mm 3 mps 747 mmHg 78%
    20:00 +20°C° 0.1 mm 2 mps 747 mmHg 86%
    21:00 +19°C° 0.1 mm 2 mps 747 mmHg 88%
    22:00 +19°C° 0.1 mm 2 mps 747 mmHg 89%
    23:00 +18°C° 0.1 mm 2 mps 747 mmHg 91%

    28 May, Tuesday

    Time Temperature Precipitation Wind Pressure Humidity
    00:00 +18°C° 0 mm 2 mps 747 mmHg 91%
    01:00 +19°C° 0 mm 1 mps 747 mmHg 92%
    02:00 +19°C° 0 mm 1 mps 747 mmHg 93%
    03:00 +19°C° 0 mm 1 mps 747 mmHg 93%
    04:00 +19°C° 0 mm 1 mps 747 mmHg 93%
    05:00 +18°C° 0 mm 2 mps 747 mmHg 93%
    06:00 +19°C° 0 mm 2 mps 746 mmHg 90%
    07:00 +20°C° 0 mm 2 mps 746 mmHg 87%
    08:00 +21°C° 0 mm 3 mps 746 mmHg 83%
    09:00 +21°C° 0.2 mm 3 mps 746 mmHg 82%
    10:00 +22°C° 0.2 mm 4 mps 746 mmHg 81%
    11:00 +22°C° 0.2 mm 4 mps 746 mmHg 80%
    12:00 +25°C° 0.2 mm 4 mps 746 mmHg 75%
    13:00 +26°C° 0.2 mm 4 mps 746 mmHg 69%
    14:00 +27°C° 0.2 mm 4 mps 745 mmHg 63%
    15:00 +27°C° 1.2 mm 4 mps 745 mmHg 65%
    16:00 +27°C° 1.2 mm 4 mps 745 mmHg 66%
    17:00 +27°C° 1.2 mm 4 mps 745 mmHg 67%
    18:00 +25°C° 0.1 mm 3 mps 745 mmHg 70%
    19:00 +24°C° 0.1 mm 3 mps 745 mmHg 73%
    20:00 +22°C° 0.1 mm 3 mps 745 mmHg 76%
    21:00 +21°C° 0 mm 3 mps 745 mmHg 78%
    22:00 +20°C° 0 mm 3 mps 745 mmHg 80%
    23:00 +20°C° 0 mm 4 mps 745 mmHg 81%

    29 May, Wednesday

    Time Temperature Precipitation Wind Pressure Humidity
    00:00 +19°C° 0 mm 4 mps 745 mmHg 81%
    01:00 +19°C° 0 mm 4 mps 744 mmHg 81%
    02:00 +18°C° 0 mm 4 mps 744 mmHg 81%
    03:00 +18°C° 0.3 mm 4 mps 744 mmHg 83%
    04:00 +17°C° 0.3 mm 4 mps 744 mmHg 86%
    05:00 +17°C° 0.3 mm 3 mps 744 mmHg 88%
    06:00 +18°C° 0.1 mm 4 mps 744 mmHg 86%
    07:00 +19°C° 0.1 mm 4 mps 744 mmHg 84%
    08:00 +20°C° 0.1 mm 4 mps 745 mmHg 82%
    09:00 +22°C° 0 mm 4 mps 745 mmHg 75%
    10:00 +25°C° 0 mm 4 mps 745 mmHg 67%
    11:00 +27°C° 0 mm 3 mps 745 mmHg 60%
    12:00 +28°C° 0 mm 4 mps 745 mmHg 56%
    13:00 +29°C° 0 mm 4 mps 745 mmHg 52%
    14:00 +29°C° 0 mm 5 mps 745 mmHg 47%
    15:00 +29°C° 0 mm 4 mps 745 mmHg 50%
    16:00 +28°C° 0 mm 4 mps 745 mmHg 52%
    17:00 +28°C° 0 mm 4 mps 745 mmHg 54%
    18:00 +26°C° 0 mm 3 mps 745 mmHg 63%
    19:00 +24°C° 0 mm 2 mps 746 mmHg 71%
    20:00 +22°C° 0 mm 1 mps 746 mmHg 79%
    21:00 +21°C° 0 mm 1 mps 746 mmHg 82%
    22:00 +20°C° 0 mm 1 mps 746 mmHg 86%
    23:00 +19°C° 0 mm 1 mps 747 mmHg 89%
    Show more